Regional Weather Roundup
Issued by NWS

Home | Current Version | Previous Version | Graphics & Text | Print | Product List | Glossary On
Versions: 1 2 3 4 5 6 7 8 9 10 11 12 13 14 15 16 17 18 19 20 21 22 23 24 25 26 27 28 29 30 31 32 33 34 35 36 37 38 39 40 41 42 43 44 45 46 47 48 49 50
000
ASUS43 KIND 201359
RWRIN

WEATHER ROUNDUP FOR INDIANA
NATIONAL WEATHER SERVICE INDIANAPOLIS IN
1000 AM EDT SUN APR 20 2014

NOTE: "FAIR" INDICATES FEW OR NO CLOUDS BELOW 12,000 FEET WITH NO
SIGNIFICANT WEATHER AND/OR OBSTRUCTIONS TO VISIBILITY.

* - STATION DOES NOT REPORT WEATHER SUCH AS PRECIPITATION OR FOG.

+ - STATION NOT QUALITY CONTROLLED BY THE NATIONAL WEATHER SERVICE.
    USE DATA WITH CAUTION...ESPECIALLY DEWPOINT AND RELATIVE
    HUMIDITY OBSERVATIONS.

INZ001>003-010>013-019-020-201500-
NORTHWEST INDIANA

CITY           SKY/WX    TMP DP  RH WIND       PRES   REMARKS
GARY /AIRPORT/ MOSUNNY   55  30  38 S7        30.24F
MONTICELLO +   PTSUNNY   50  33  50 SE5       30.25F
RENSSELAER +   PTSUNNY   52  32  46 SE7       30.26F
VALPARAISO     PTSUNNY   51  31  46 S10       30.26F

$$

LMZ046-743>745-201500-
SOUTHERN LAKE MICHIGAN

STATION/POSITION TIME  TEMP WIND        PRES
                       AIR  DIR/SP/G
                 (UTC) (F)  (DEG/KT/KT) (MB)
MICHIGAN CITY    1300   50  160/ 11/ 16   N/A

$$

INZ004-005-014>016-021>024-201500-
NORTH CENTRAL INDIANA

CITY           SKY/WX    TMP DP  RH WIND       PRES   REMARKS
GOSHEN         MOSUNNY   53  35  50 SE7       30.27S
SOUTH BEND     MOSUNNY   53  31  42 SE8       30.27F

$$

INZ006>009-017-018-025>027-201500-
NORTHEAST INDIANA

CITY           SKY/WX    TMP DP  RH WIND       PRES   REMARKS
ANGOLA *+      SUNNY     50  34  53 SE6       30.27F
FORT WAYNE     PTSUNNY   51  34  52 E6        30.28F

$$

INZ028-029-035-036-043>045-051>053-201500-
WEST CENTRAL INDIANA

CITY           SKY/WX    TMP DP  RH WIND       PRES   REMARKS
GREENCASTLE +  SUNNY     55  37  50 SE6       30.26S
LAFAYETTE      MOSUNNY   55  36  48 VRB3      30.25F
TERRE HAUTE    MOSUNNY   57  38  48 SE6       30.25S

$$

INZ030>032-037>040-046>048-054>057-064-065-201500-
CENTRAL INDIANA

CITY           SKY/WX    TMP DP  RH WIND       PRES   REMARKS
COLUMBUS       SUNNY     52  39  62 CALM      30.27S
INDIANAPOLIS   PTSUNNY   55  35  47 SE7       30.26F
-EAGLE CREEK   SUNNY     55  33  43 SE6       30.25F
KOKOMO *+      MOSUNNY   54  36  50 S6        30.27S
MT COMFORT *+  SUNNY     59  36  41 S8        30.26S
SHELBYVILLE    SUNNY     59  36  42 S7        30.25F

$$

INZ033-034-041-042-049-050-058-059-201500-
EAST CENTRAL INDIANA

CITY           SKY/WX    TMP DP  RH WIND       PRES   REMARKS
MUNCIE         SUNNY     59  32  36 S7        30.26F

$$

INZ060-061-067>069-081>083-085>088-201500-
SOUTHWEST INDIANA

CITY           SKY/WX    TMP DP  RH WIND       PRES   REMARKS
EVANSVILLE     SUNNY     61  42  49 CALM      30.24F
HUNTINGBURG *+ SUNNY     61  39  44 SE7       30.25R

$$

INZ062-063-066-070>080-084-089>092-201500-
SOUTH CENTRAL AND SOUTHEAST INDIANA

CITY           SKY/WX    TMP DP  RH WIND       PRES   REMARKS
BLOOMINGTON    SUNNY     57  35  43 SE6       30.25S

$$




USA.gov is the U.S. government's official web portal to all federal, state and local government web resources and services.